When you browse on this site, cookies collect data to enhance your experience and personalize the content and advertising you see.
Visit our Privacy Policy to learn more. By continuing to use the site, you agree to this use of cookies and data.
  • In Hungary
  • List of Countries
  • For 7 days
  • Water Temperature
  • Satellite Maps
  • Weather Map
  • News
  • Weather Widgets
  • user-avatar
    Login

    Hourly Weather Palotina

    Today, 21 January, Monday

    Time Temperature Precipitation Wind Pressure Humidity
    00:00 +24°C° 0 mm 2 mps 731 mmHg 85%
    01:00 +24°C° 0 mm 2 mps 731 mmHg 86%
    02:00 +23°C° 0 mm 2 mps 731 mmHg 88%
    03:00 +23°C° 0 mm 1 mps 731 mmHg 89%
    04:00 +23°C° 0 mm 1 mps 731 mmHg 91%
    05:00 +23°C° 0 mm 1 mps 731 mmHg 92%
    06:00 +25°C° 0 mm 1 mps 732 mmHg 87%
    07:00 +26°C° 0 mm 1 mps 732 mmHg 81%
    08:00 +28°C° 0 mm 1 mps 733 mmHg 75%
    09:00 +30°C° 0.2 mm 1 mps 733 mmHg 71%
    10:00 +31°C° 0.2 mm 1 mps 732 mmHg 66%
    11:00 +32°C° 0.2 mm 2 mps 732 mmHg 61%
    12:00 +32°C° 0.3 mm 2 mps 732 mmHg 61%
    13:00 +34°C° 0.3 mm 2 mps 732 mmHg 61%
    14:00 +34°C° 0.3 mm 2 mps 731 mmHg 61%
    15:00 +34°C° 0.2 mm 2 mps 731 mmHg 61%
    16:00 +33°C° 0.2 mm 1 mps 731 mmHg 60%
    17:00 +33°C° 0.2 mm 1 mps 730 mmHg 60%
    18:00 +31°C° 0 mm 1 mps 731 mmHg 65%
    19:00 +30°C° 0 mm 2 mps 731 mmHg 70%
    20:00 +28°C° 0 mm 2 mps 731 mmHg 76%
    21:00 +27°C° 0 mm 2 mps 731 mmHg 78%
    22:00 +27°C° 0 mm 2 mps 731 mmHg 81%
    23:00 +26°C° 0 mm 2 mps 732 mmHg 84%

    Tomorrow, 22 January, Tuesday

    Time Temperature Precipitation Wind Pressure Humidity
    00:00 +26°C° 0 mm 2 mps 731 mmHg 85%
    01:00 +25°C° 0 mm 1 mps 731 mmHg 86%
    02:00 +25°C° 0 mm 1 mps 731 mmHg 88%
    03:00 +25°C° 0 mm 1 mps 731 mmHg 88%
    04:00 +25°C° 0 mm 1 mps 731 mmHg 89%
    05:00 +24°C° 0 mm 1 mps 731 mmHg 90%
    06:00 +26°C° 0 mm 2 mps 732 mmHg 85%
    07:00 +28°C° 0 mm 2 mps 733 mmHg 80%
    08:00 +30°C° 0 mm 2 mps 733 mmHg 75%
    09:00 +31°C° 1.1 mm 2 mps 733 mmHg 70%
    10:00 +32°C° 1.1 mm 1 mps 733 mmHg 65%
    11:00 +33°C° 1.1 mm 1 mps 733 mmHg 61%
    12:00 +34°C° 0 mm 1 mps 732 mmHg 56%
    13:00 +35°C° 0 mm 1 mps 732 mmHg 52%
    14:00 +36°C° 0 mm 1 mps 731 mmHg 48%
    15:00 +36°C° 0 mm 1 mps 731 mmHg 51%
    16:00 +35°C° 0 mm 1 mps 730 mmHg 55%
    17:00 +35°C° 0 mm 1 mps 730 mmHg 58%
    18:00 +33°C° 0 mm 1 mps 730 mmHg 61%
    19:00 +31°C° 0 mm 2 mps 730 mmHg 63%
    20:00 +30°C° 0 mm 2 mps 730 mmHg 66%
    21:00 +29°C° 0 mm 2 mps 731 mmHg 67%
    22:00 +29°C° 0 mm 1 mps 731 mmHg 68%
    23:00 +28°C° 0 mm 1 mps 731 mmHg 68%

    Day after tomorrow, 23 January, Wednesday

    Time Temperature Precipitation Wind Pressure Humidity
    00:00 +28°C° 0 mm 1 mps 731 mmHg 71%
    01:00 +27°C° 0 mm 1 mps 731 mmHg 73%
    02:00 +27°C° 0 mm 1 mps 730 mmHg 76%
    03:00 +26°C° 0 mm 1 mps 731 mmHg 77%
    04:00 +26°C° 0 mm 2 mps 731 mmHg 78%
    05:00 +26°C° 0 mm 2 mps 731 mmHg 80%
    06:00 +28°C° 0 mm 2 mps 732 mmHg 77%
    07:00 +29°C° 0 mm 2 mps 732 mmHg 74%
    08:00 +31°C° 0 mm 2 mps 733 mmHg 71%
    09:00 +32°C° 0.5 mm 2 mps 733 mmHg 65%
    10:00 +35°C° 0.5 mm 2 mps 733 mmHg 60%
    11:00 +36°C° 0.5 mm 2 mps 732 mmHg 55%
    12:00 +36°C° 0 mm 1 mps 732 mmHg 53%
    13:00 +36°C° 0 mm 1 mps 731 mmHg 50%
    14:00 +37°C° 0 mm 1 mps 731 mmHg 48%
    15:00 +37°C° 0 mm 1 mps 730 mmHg 51%
    16:00 +36°C° 0 mm 1 mps 730 mmHg 54%
    17:00 +36°C° 0 mm 1 mps 730 mmHg 58%
    18:00 +34°C° 0 mm 1 mps 730 mmHg 60%
    19:00 +33°C° 0 mm 1 mps 730 mmHg 61%
    20:00 +29°C° 0 mm 0 mps 730 mmHg 63%
    21:00 +30°C° 0 mm 1 mps 730 mmHg 65%
    22:00 +30°C° 0 mm 1 mps 731 mmHg 67%
    23:00 +29°C° 0 mm 2 mps 731 mmHg 69%

    24 January, Thursday

    Time Temperature Precipitation Wind Pressure Humidity
    00:00 +29°C° 0 mm 2 mps 730 mmHg 71%
    01:00 +28°C° 0 mm 2 mps 730 mmHg 74%
    02:00 +27°C° 0 mm 2 mps 729 mmHg 76%
    03:00 +27°C° 0 mm 2 mps 729 mmHg 77%
    04:00 +27°C° 0 mm 2 mps 730 mmHg 79%
    05:00 +26°C° 0 mm 2 mps 730 mmHg 80%
    06:00 +28°C° 0 mm 2 mps 730 mmHg 77%
    07:00 +30°C° 0 mm 2 mps 731 mmHg 73%
    08:00 +31°C° 0 mm 2 mps 731 mmHg 70%
    09:00 +34°C° 0.1 mm 2 mps 731 mmHg 64%
    10:00 +34°C° 0.1 mm 1 mps 731 mmHg 59%
    11:00 +36°C° 0.1 mm 1 mps 731 mmHg 54%
    12:00 +36°C° 0 mm 1 mps 730 mmHg 51%
    13:00 +38°C° 0 mm 2 mps 730 mmHg 48%
    14:00 +39°C° 0 mm 2 mps 729 mmHg 45%
    15:00 +38°C° 0 mm 2 mps 729 mmHg 48%
    16:00 +38°C° 0 mm 2 mps 728 mmHg 51%
    17:00 +37°C° 0 mm 1 mps 728 mmHg 54%
    18:00 +35°C° 0 mm 1 mps 728 mmHg 56%
    19:00 +33°C° 0 mm 1 mps 728 mmHg 58%
    20:00 +31°C° 0 mm 1 mps 729 mmHg 60%
    21:00 +30°C° 0.7 mm 2 mps 729 mmHg 66%
    22:00 +29°C° 0.7 mm 2 mps 729 mmHg 72%
    23:00 +28°C° 0.7 mm 2 mps 729 mmHg 78%

    25 January, Friday

    Time Temperature Precipitation Wind Pressure Humidity
    00:00 +27°C° 0 mm 2 mps 729 mmHg 82%
    01:00 +27°C° 0 mm 3 mps 728 mmHg 86%
    02:00 +26°C° 0 mm 3 mps 728 mmHg 90%
    03:00 +25°C° 0 mm 3 mps 728 mmHg 90%
    04:00 +25°C° 0 mm 3 mps 729 mmHg 91%
    05:00 +25°C° 0 mm 3 mps 729 mmHg 92%
    06:00 +26°C° 0 mm 3 mps 729 mmHg 87%
    07:00 +27°C° 0 mm 4 mps 730 mmHg 82%
    08:00 +29°C° 0 mm 4 mps 731 mmHg 77%
    09:00 +30°C° 0 mm 4 mps 730 mmHg 71%
    10:00 +33°C° 0 mm 4 mps 730 mmHg 65%
    11:00 +34°C° 0 mm 3 mps 730 mmHg 59%
    12:00 +35°C° 0 mm 3 mps 729 mmHg 57%
    13:00 +36°C° 0 mm 3 mps 729 mmHg 55%
    14:00 +36°C° 0 mm 3 mps 728 mmHg 52%
    15:00 +36°C° 0 mm 3 mps 728 mmHg 56%
    16:00 +35°C° 0 mm 3 mps 728 mmHg 59%
    17:00 +35°C° 0 mm 3 mps 727 mmHg 62%
    18:00 +33°C° 0 mm 3 mps 728 mmHg 68%
    19:00 +31°C° 0 mm 3 mps 728 mmHg 73%
    20:00 +29°C° 0 mm 3 mps 728 mmHg 79%
    21:00 +28°C° 0 mm 3 mps 728 mmHg 81%
    22:00 +27°C° 0 mm 3 mps 729 mmHg 83%
    23:00 +26°C° 0 mm 3 mps 729 mmHg 85%

    26 January, Saturday

    Time Temperature Precipitation Wind Pressure Humidity
    00:00 +26°C° 0 mm 3 mps 729 mmHg 87%
    01:00 +26°C° 0 mm 3 mps 729 mmHg 88%
    02:00 +25°C° 0 mm 3 mps 729 mmHg 90%
    03:00 +25°C° 0 mm 3 mps 729 mmHg 89%
    04:00 +24°C° 0 mm 3 mps 729 mmHg 89%
    05:00 +24°C° 0 mm 3 mps 730 mmHg 89%
    06:00 +25°C° 0 mm 4 mps 730 mmHg 84%
    07:00 +27°C° 0 mm 4 mps 731 mmHg 79%
    08:00 +28°C° 0 mm 4 mps 731 mmHg 74%
    09:00 +29°C° 0 mm 4 mps 731 mmHg 69%
    10:00 +32°C° 0 mm 4 mps 731 mmHg 64%
    11:00 +34°C° 0 mm 4 mps 731 mmHg 59%
    12:00 +34°C° 0 mm 3 mps 730 mmHg 56%
    13:00 +35°C° 0 mm 3 mps 729 mmHg 53%
    14:00 +36°C° 0 mm 2 mps 729 mmHg 50%
    15:00 +35°C° 0 mm 2 mps 729 mmHg 52%
    16:00 +35°C° 0 mm 2 mps 729 mmHg 55%
    17:00 +35°C° 0 mm 2 mps 728 mmHg 58%
    18:00 +33°C° 0 mm 3 mps 729 mmHg 61%
    19:00 +30°C° 0 mm 3 mps 729 mmHg 65%
    20:00 +28°C° 0 mm 4 mps 729 mmHg 69%
    21:00 +27°C° 0 mm 4 mps 730 mmHg 73%
    22:00 +27°C° 0 mm 4 mps 730 mmHg 76%
    23:00 +26°C° 0 mm 3 mps 730 mmHg 80%
    Show more